Voltar ao catálogo

STARLINK-37211

AtivoComunicaçõesSSO
NORAD 68620·PAYLOAD·🇺🇸 United States

Lançado Apr 5, 2026 de Vandenberg Space Force Base

Loading…

Próximas Passagens (próximas 24 horas)

TLE

AtualizadoSource: CelesTrak SupGP

Época: Sep 15, 2026, 03:28 UTC

1 68620C 26073U   26258.14493056 -.00047645  00000+0 -14783-2 0  2585
2 68620  97.2853  96.3022 0001985  86.6018 294.0315 15.33477645    12

Acompanhe STARLINK-37211 em tempo real com AllMySat

Download on the App Store